THORAD DELTA 1 R/B(2), 9330

Orbit data source: Space-Track

THORAD DELTA 1 R/B(2), 9330 is space debris in HEO originally from a launch on Thu, 19 Dec 1974 UTC launched from the Air Force Eastern Test Range (AFETR). Debris objects in space refer to the collection of defunct objects orbiting the Earth. Examples of debris include non-operational satellites, rocket bodies, and fragments generated from explosions, collisions, or faulty payload assembly.

Loading next visibility...
Identifier
9330, 1974-101G
Orbit
HEO
Country
Flag of USUS
Related business
Manufacturer
Thiokol/TE
Mission
Spacecraft
Bus & Motor
STAR 37, Unknown motor
Mass
~83 kg wet, 83 kg dry
Launch date (UTC)
1974-12-19 (51 years ago)
Launch vehicle
Unknown
Launch site
Air Force Eastern Test Range (AFETR)
Object type
Payload
Rocket body
Debris
Shape & HBR
Unknown
Radar Cross Section
Large (>1 m²)

Expand to show TLE details & history
Last TLE update: 19 hours ago

TLE from 19 hours ago
0 THORAD DELTA 1 R/B(2)
1 09330U 74101G   25340.45180816  .00000096  00000-0  61280-3 0  9990
2 09330  13.1157  31.7679 7183655 129.7097 318.8690  2.31140823414589
Epoch: 2025-12-06T10:50Z
TLE epoch observation values (Epoch: 2025-12-06T10:50:36.225Z)
Latitude
Longitude
153.54261°
Altitude
15,300.419 km
Speed
4.503 km/s
True Right ascension
02h 06m 41s
True Declination
0° 00' 00"
Sunlit
Object was in daylight at epoch
Visualization orbit readout
Latitude
Unknown
Longitude
Unknown
Altitude
Unknown
Speed
Unknown
Apparent Right ascension
Unknown
Apparent Declination
Unknown
Sunlit
N/A
Visualization observer readout
Local Sidereal Time
04:04:54
Azimuth
Unknown
Elevation
Unknown
Doppler factor
Unknown
Orbital elements
Apogee altitude
35,151.329 km
Perigee altitude
428.407 km
Semi-major axis
24,168.005 km
Eccentricity
0.71837
Inclination
13.1157°
RAAN
31.7679°
Arg. of periapsis
129.7097°
True anomaly
230.03923°
Mean anomaly
318.869°
Eccentric anomaly
278.1226°
Mean motion
0.57767 °/min
Orbital period
623.19 mins
BSTAR
0.0006128
Loading maneuver chart data...
Computing Atmospheric mass density...
Loading historical data...
Loading historical data...
Loading historical data...
Loading historical data...
Loading historical data...
Loading historical data...
Loading historical data...

Documentation

Showing up to 5 results
|